Flag for United Kingdom Weather past 2 weeks in Leeds, England, United Kingdom

Now
36 °F

Clear.


Feels Like: 24 °F
Forecast: 39 / 50 °F
Wind: 22 mph from West

Location: Leeds And Bradford

Current Time: Apr 1, 2015 at 2:37:22 AM

Latest Report: Apr 1, 2015 at 2:20 AM


Visibility: 10 mi

Pressure: 29.98 "Hg

Humidity: 87%

Dew point: 32 °F

Location of LeedsLocation

Historic Weather in Leeds — Graph

°F

Leeds temperature yesterday

Maximum temperature yesterday: 46 °F (at 12:20 AM)
Minimum temperature yesterday: 34 °F (at 10:20 PM)
Average temperature yesterday: 41 °F

Past Weeks' High & Low Weather Summary

 TemperatureHumidityPressure
High55 °F (Mar 28, 1:50 PM)100% (Mar 17, 12:20 AM)30.57 "Hg (Mar 17, 12:20 AM)
Low30 °F (Mar 18, 6:20 AM)46% (Mar 30, 2:50 PM)29.12 "Hg (Mar 30, 11:50 PM)
Average41 °F84%29.95 "Hg
* Reported Mar 17 12:20 AM — Apr 1 1:20 AM, Leeds, Weather by CustomWeather, © 2015

Note: Actual official high and low records may vary slightly from our data, if they occured in-between our weather recording intervals... More about our weather records

Advertising

Leeds weather history for previous 24 hours

 ConditionsComfort  
Time TempWeatherWind HumidityBarometerVisibility
1:20 AM
Wed, Apr 1
36 °FClear.32 mph87%29.92 "Hg10 mi
12:50 AM36 °FSprinkles. Passing clouds.28 mph87%29.92 "HgN/A
12:20 AM36 °FSprinkles. Passing clouds.24 mph93%29.92 "HgN/A
11:50 PM
Tue, Mar 31
36 °FSprinkles. Passing clouds.31 mph87%29.89 "HgN/A
11:20 PM36 °FPassing clouds.25 mph87%29.89 "HgN/A
10:50 PM34 °FSnow flurries. Passing clouds.22 mph100%29.86 "HgN/A
10:20 PM34 °FSnow flurries. Passing clouds.22 mph93%29.86 "HgN/A
9:50 PM36 °FSprinkles. Passing clouds.29 mph87%29.86 "HgN/A
9:20 PM37 °FPassing clouds.28 mph70%29.83 "HgN/A
8:50 PM37 °FPassing clouds.29 mph70%29.83 "HgN/A
8:20 PM37 °FScattered clouds.29 mph70%29.80 "HgN/A
7:50 PM37 °FScattered clouds.29 mph75%29.80 "HgN/A
7:20 PM37 °FScattered clouds.29 mph75%29.77 "HgN/A
6:50 PM37 °FScattered clouds.26 mph81%29.77 "HgN/A
6:20 PM37 °FSnow flurries. Scattered clouds.28 mph81%29.77 "HgN/A
5:50 PM39 °FSprinkles. Scattered clouds.31 mph65%29.74 "HgN/A
5:20 PM41 °FPassing clouds.32 mph61%29.74 "HgN/A
4:50 PM41 °FPassing clouds.38 mph66%29.71 "HgN/A
4:20 PM39 °FScattered clouds.35 mph81%29.68 "HgN/A
3:50 PM36 °FSprinkles. Broken clouds.37 mph93%29.71 "Hg5 mi
3:20 PM43 °FScattered clouds.37 mph57%29.65 "HgN/A
2:50 PM43 °FScattered showers. Scattered clouds.35 mph61%29.65 "HgN/A
2:20 PM43 °FSprinkles. Scattered clouds.37 mph61%29.65 "HgN/A
1:50 PM45 °FScattered showers. Scattered clouds.32 mph57%29.62 "HgN/A
1:20 PM43 °FSprinkles. Scattered clouds.36 mph66%29.62 "HgN/A
12:50 PM45 °FScattered clouds.32 mph61%29.59 "HgN/A
12:20 PM43 °FScattered showers. Scattered clouds.31 mph76%29.59 "HgN/A
11:50 AM45 °FScattered showers. Scattered clouds.38 mph61%29.59 "HgN/A
11:20 AM45 °FScattered showers. Scattered clouds.35 mph66%29.56 "HgN/A
10:50 AM43 °FSprinkles. Scattered clouds.31 mph71%29.53 "HgN/A
10:20 AM43 °FScattered clouds.32 mph71%29.53 "HgN/A
9:50 AM43 °FPassing clouds.32 mph71%29.53 "HgN/A
9:20 AM43 °FPassing clouds.32 mph71%29.50 "HgN/A
8:50 AM41 °FPassing clouds.30 mph76%29.50 "HgN/A
8:20 AM43 °FSprinkles. Passing clouds.28 mph71%29.47 "HgN/A
7:50 AM43 °FPassing clouds.24 mph71%29.45 "HgN/A
7:20 AM43 °FPassing clouds.25 mph71%29.42 "HgN/A
6:50 AM41 °FPassing clouds.28 mph76%29.36 "HgN/A
6:20 AM41 °FPassing clouds.33 mph100%29.33 "HgN/A
5:50 AM41 °FPassing clouds.32 mph100%29.27 "HgN/A
5:20 AM41 °FPassing clouds.37 mph100%29.24 "HgN/A
4:50 AM43 °FLight rain. Passing clouds.33 mph100%29.21 "HgN/A
4:20 AM43 °FLight rain. Passing clouds.35 mph100%29.18 "HgN/A
3:50 AM43 °FRain. Passing clouds.37 mph100%29.15 "Hg5 mi
3:20 AM45 °FLight rain. Passing clouds.36 mph100%29.15 "HgN/A
2:50 AM45 °FLight rain. Passing clouds.37 mph100%29.15 "HgN/A
2:20 AM45 °FLight rain. Passing clouds.32 mph100%29.12 "HgN/A
Weather by CustomWeather, © 2015

See weather overviewHow to use our weather pages